| time (UTC) | temp F | wind direction | speed MPH | gust MPH | rain 1hr in | rain 24hr in | rain mn in | humidity % | barometer mb |
| 20260905234522 | 81 | 101 | 1.0 | 2.0 | 0.04 | 0.09 | 0.09 | 81 | 1009.5 |
| 20260905233524 | 82 | 68 | 2.0 | 3.0 | 0.03 | 0.08 | 0.08 | 76 | 1009.3 |
| 20260905232547 | 86 | 110 | 3.0 | 4.0 | 0.02 | 0.07 | 0.07 | 70 | 1009.0 |
| 20260905231525 | 95 | 194 | 1.0 | 4.0 | 0.00 | 0.05 | 0.05 | 55 | 1008.9 |
| 20260905230516 | 97 | 90 | 1.0 | 2.0 | 0.00 | 0.05 | 0.05 | 49 | 1008.7 |
| 20260905225519 | 98 | 0.0 | 0.0 | 0.00 | 0.05 | 0.05 | 47 | 1008.5 | |
| 20260905224517 | 96 | 142 | 1.0 | 2.0 | 0.00 | 0.05 | 0.05 | 49 | 1008.8 |
| 20260905223601 | 97 | 217 | 3.0 | 4.0 | 0.00 | 0.05 | 0.05 | 47 | 1008.4 |
| 20260905222518 | 97 | 253 | 3.0 | 5.0 | 0.00 | 0.05 | 0.05 | 47 | 1008.7 |
| 20260905221521 | 98 | 158 | 3.0 | 5.0 | 0.00 | 0.05 | 0.05 | 46 | 1008.7 |
| 20260905220545 | 98 | 244 | 2.0 | 3.0 | 0.00 | 0.05 | 0.05 | 46 | 1008.8 |
| 20260905215527 | 99 | 214 | 2.0 | 4.0 | 0.00 | 0.05 | 0.05 | 45 | 1009.0 |
| 20260905214532 | 99 | 165 | 2.0 | 2.0 | 0.00 | 0.05 | 0.05 | 45 | 1008.9 |
| 20260905213517 | 98 | 258 | 3.0 | 6.0 | 0.00 | 0.05 | 0.05 | 47 | 1008.7 |
| 20260905212533 | 97 | 253 | 3.0 | 6.0 | 0.00 | 0.05 | 0.05 | 48 | 1008.8 |
| 20260905211518 | 98 | 178 | 2.0 | 3.0 | 0.00 | 0.05 | 0.05 | 47 | 1008.8 |
| 20260905210521 | 98 | 150 | 2.0 | 6.0 | 0.00 | 0.05 | 0.05 | 46 | 1008.8 |
| 20260905205524 | 98 | 143 | 4.0 | 7.0 | 0.00 | 0.05 | 0.05 | 46 | 1008.9 |
| 20260905204527 | 98 | 194 | 2.0 | 4.0 | 0.00 | 0.05 | 0.05 | 46 | 1009.0 |
| 20260905203527 | 98 | 202 | 3.0 | 7.0 | 0.00 | 0.05 | 0.05 | 46 | 1009.2 |
| 20260905202524 | 99 | 263 | 2.0 | 5.0 | 0.00 | 0.05 | 0.05 | 46 | 1009.2 |
| 20260905201526 | 97 | 222 | 3.0 | 4.0 | 0.00 | 0.05 | 0.05 | 47 | 1009.3 |
| 20260905200525 | 97 | 233 | 3.0 | 5.0 | 0.00 | 0.05 | 0.05 | 47 | 1009.4 |
| 20260905195528 | 97 | 248 | 3.0 | 7.0 | 0.00 | 0.05 | 0.05 | 47 | 1009.6 |
| 20260905194530 | 97 | 222 | 3.0 | 6.0 | 0.00 | 0.05 | 0.05 | 46 | 1009.9 |
| 20260905193516 | 97 | 259 | 5.0 | 6.0 | 0.00 | 0.05 | 0.05 | 46 | 1009.9 |
| 20260905192520 | 97 | 208 | 4.0 | 6.0 | 0.00 | 0.05 | 0.05 | 47 | 1010.0 |
| 20260905191522 | 97 | 237 | 3.0 | 4.0 | 0.00 | 0.05 | 0.05 | 47 | 1010.0 |
| 20260905190559 | 96 | 249 | 2.0 | 4.0 | 0.00 | 0.05 | 0.05 | 46 | 1010.1 |
| 20260905185517 | 97 | 257 | 3.0 | 7.0 | 0.00 | 0.05 | 0.05 | 47 | 1010.4 |
| 20260905184533 | 97 | 246 | 2.0 | 6.0 | 0.00 | 0.05 | 0.05 | 45 | 1010.5 |
| 20260905183545 | 98 | 186 | 2.0 | 3.0 | 0.00 | 0.05 | 0.05 | 45 | 1010.6 |
| 20260905182530 | 97 | 179 | 2.0 | 3.0 | 0.00 | 0.05 | 0.05 | 44 | 1010.7 |
| 20260905181526 | 97 | 106 | 2.0 | 3.0 | 0.00 | 0.05 | 0.05 | 44 | 1010.8 |
| 20260905180519 | 96 | 230 | 2.0 | 5.0 | 0.00 | 0.05 | 0.05 | 47 | 1010.9 |
| 20260905175523 | 96 | 232 | 1.0 | 4.0 | 0.00 | 0.05 | 0.05 | 46 | 1011.1 |
| 20260905174522 | 95 | 205 | 1.0 | 2.0 | 0.00 | 0.05 | 0.05 | 49 | 1011.1 |
| 20260905173525 | 94 | 188 | 1.0 | 3.0 | 0.00 | 0.05 | 0.05 | 52 | 1011.0 |
| 20260905172528 | 94 | 100 | 2.0 | 2.0 | 0.00 | 0.05 | 0.05 | 48 | 1011.4 |
| 20260905171531 | 92 | 247 | 1.0 | 2.0 | 0.00 | 0.05 | 0.05 | 51 | 1011.5 |
| 20260905170516 | 91 | 113 | 2.0 | 4.0 | 0.00 | 0.05 | 0.05 | 54 | 1011.5 |
| 20260905165519 | 90 | 190 | 2.0 | 4.0 | 0.00 | 0.05 | 0.05 | 57 | 1011.9 |
| 20260905164524 | 90 | 113 | 2.0 | 3.0 | 0.00 | 0.05 | 0.05 | 55 | 1012.0 |
| 20260905163525 | 90 | 82 | 2.0 | 3.0 | 0.00 | 0.05 | 0.05 | 54 | 1011.8 |
| 20260905162530 | 89 | 109 | 2.0 | 3.0 | 0.00 | 0.05 | 0.05 | 59 | 1012.0 |
| 20260905161516 | 87 | 203 | 2.0 | 3.0 | 0.00 | 0.05 | 0.05 | 63 | 1012.0 |
| 20260905160527 | 87 | 98 | 2.0 | 4.0 | 0.00 | 0.05 | 0.05 | 61 | 1012.0 |
| 20260905155530 | 86 | 126 | 2.0 | 3.0 | 0.00 | 0.05 | 0.05 | 64 | 1012.2 |
| 20260905154548 | 85 | 167 | 1.0 | 2.0 | 0.00 | 0.05 | 0.05 | 68 | 1012.3 |
| 20260905153531 | 84 | 105 | 2.0 | 3.0 | 0.00 | 0.05 | 0.05 | 68 | 1012.6 |
| 20260905152516 | 83 | 116 | 1.0 | 3.0 | 0.00 | 0.05 | 0.05 | 73 | 1012.7 |
| 20260905151539 | 81 | 99 | 2.0 | 4.0 | 0.00 | 0.05 | 0.05 | 73 | 1012.6 |
| 20260905150523 | 80 | 104 | 2.0 | 4.0 | 0.00 | 0.05 | 0.05 | 77 | 1012.6 |
| 20260905145521 | 78 | 105 | 2.0 | 4.0 | 0.05 | 0.05 | 0.05 | 82 | 1012.8 |
| 20260905144517 | 77 | 113 | 0.0 | 2.0 | 0.05 | 0.05 | 0.05 | 86 | 1012.8 |
| 20260905143532 | 75 | 106 | 1.0 | 3.0 | 0.05 | 0.05 | 0.05 | 90 | 1012.8 |
| 20260905142517 | 74 | 0.0 | 0.0 | 0.05 | 0.05 | 0.05 | 92 | 1012.9 | |
| 20260905141613 | 74 | 0.0 | 0.0 | 0.05 | 0.05 | 0.05 | 90 | 1012.9 | |
| 20260905140531 | 75 | 103 | 2.0 | 3.0 | 0.05 | 0.05 | 0.05 | 87 | 1013.0 |
| 20260905135516 | 76 | 117 | 3.0 | 5.0 | 0.00 | 0.00 | 0.00 | 83 | 1013.6 |
| 20260905134541 | 78 | 87 | 3.0 | 4.0 | 0.00 | 0.00 | 0.00 | 80 | 1013.4 |
| 20260905133525 | 78 | 167 | 2.0 | 4.0 | 0.00 | 0.00 | 0.00 | 80 | 1013.1 |
| 20260905132528 | 77 | 88 | 2.0 | 3.0 | 0.00 | 0.00 | 0.00 | 81 | 1013.0 |
| 20260905131530 | 76 | 101 | 2.0 | 4.0 | 0.00 | 0.00 | 0.00 | 84 | 1013.0 |
| 20260905130517 | 75 | 72 | 3.0 | 4.0 | 0.00 | 0.00 | 0.00 | 89 | 1013.2 |
| 20260905125532 | 74 | 132 | 1.0 | 2.0 | 0.00 | 0.00 | 0.00 | 89 | 1012.4 |
| 20260905124517 | 74 | 122 | 1.0 | 2.0 | 0.00 | 0.00 | 0.00 | 90 | 1012.7 |
| 20260905123521 | 74 | 0.0 | 0.0 | 0.00 | 0.00 | 0.00 | 91 | 1012.8 | |
| 20260905122540 | 74 | 111 | 0.0 | 2.0 | 0.00 | 0.00 | 0.00 | 91 | 1012.6 |
| 20260905121517 | 74 | 0.0 | 0.0 | 0.00 | 0.00 | 0.00 | 92 | 1012.4 | |
| 20260905120535 | 73 | 163 | 1.0 | 2.0 | 0.00 | 0.00 | 0.00 | 95 | 1012.3 |
| 20260905115526 | 73 | 144 | 0.0 | 2.0 | 0.00 | 0.00 | 0.00 | 97 | 1012.3 |
| 20260905114530 | 73 | 99 | 1.0 | 2.0 | 0.00 | 0.00 | 0.00 | 96 | 1012.0 |
| 20260905113527 | 73 | 90 | 0.0 | 1.0 | 0.00 | 0.00 | 0.00 | 97 | 1011.8 |
| 20260905112531 | 73 | 231 | 1.0 | 3.0 | 0.00 | 0.00 | 0.00 | 96 | 1011.7 |
| 20260905111536 | 73 | 0.0 | 0.0 | 0.00 | 0.00 | 0.00 | 96 | 1011.4 | |
| 20260905110518 | 73 | 0.0 | 0.0 | 0.00 | 0.00 | 0.00 | 96 | 1011.3 | |
| 20260905105522 | 73 | 0.0 | 0.0 | 0.00 | 0.00 | 0.00 | 96 | 1011.3 | |
| 20260905104520 | 74 | 0.0 | 0.0 | 0.00 | 0.00 | 0.00 | 96 | 1010.7 | |
| 20260905103537 | 74 | 0.0 | 0.0 | 0.00 | 0.00 | 0.00 | 96 | 1010.9 | |
| 20260905102526 | 74 | 0.0 | 0.0 | 0.00 | 0.00 | 0.00 | 94 | 1011.2 | |
| 20260905101525 | 74 | 0.0 | 0.0 | 0.00 | 0.00 | 0.00 | 94 | 1011.4 | |
| 20260905100544 | 74 | 203 | 0.0 | 1.0 | 0.00 | 0.00 | 0.00 | 94 | 1011.4 |
| 20260905095527 | 74 | 92 | 2.0 | 2.0 | 0.00 | 0.00 | 0.00 | 94 | 1010.9 |
| 20260905094545 | 75 | 0.0 | 0.0 | 0.00 | 0.00 | 0.00 | 94 | 1010.6 | |
| 20260905093528 | 75 | 0.0 | 0.0 | 0.00 | 0.00 | 0.00 | 94 | 1010.4 | |
| 20260905092526 | 75 | 0.0 | 0.0 | 0.00 | 0.00 | 0.00 | 93 | 1010.3 | |
| 20260905091524 | 75 | 0.0 | 0.0 | 0.00 | 0.00 | 0.00 | 93 | 1010.2 | |
| 20260905090528 | 75 | 0.0 | 0.0 | 0.00 | 0.00 | 0.00 | 93 | 1010.2 | |
| 20260905085531 | 75 | 0.0 | 0.0 | 0.00 | 0.00 | 0.00 | 93 | 1010.3 | |
| 20260905084517 | 76 | 0.0 | 0.0 | 0.00 | 0.00 | 0.00 | 92 | 1010.2 | |
| 20260905083559 | 76 | 0.0 | 0.0 | 0.00 | 0.00 | 0.00 | 92 | 1010.5 | |
| 20260905082517 | 76 | 90 | 0.0 | 2.0 | 0.00 | 0.00 | 0.00 | 92 | 1010.3 |
| 20260905081520 | 76 | 68 | 0.0 | 2.0 | 0.00 | 0.00 | 0.00 | 91 | 1010.4 |
| 20260905080524 | 76 | 0.0 | 0.0 | 0.00 | 0.00 | 0.00 | 91 | 1010.5 | |
| 20260905075548 | 76 | 0.0 | 0.0 | 0.00 | 0.00 | 0.00 | 91 | 1010.7 | |
| 20260905074530 | 76 | 0.0 | 0.0 | 0.00 | 0.00 | 0.00 | 91 | 1010.8 | |
| 20260905073615 | 77 | 0.0 | 0.0 | 0.00 | 0.00 | 0.00 | 90 | 1010.6 | |
| 20260905072518 | 76 | 0.0 | 0.0 | 0.00 | 0.00 | 0.00 | 90 | 1010.8 | |
| 20260905071523 | 76 | 0.0 | 0.0 | 0.00 | 0.00 | 0.00 | 91 | 1010.8 | |
| 20260905070525 | 76 | 0.0 | 0.0 | 0.00 | 0.00 | 0.00 | 92 | 1010.9 | |
| 20260905065522 | 76 | 0.0 | 0.0 | 0.00 | 0.00 | 0.00 | 92 | 1011.0 | |
| 20260905064520 | 76 | 0.0 | 0.0 | 0.00 | 0.00 | 0.00 | 93 | 1011.1 | |
| 20260905063517 | 76 | 0.0 | 0.0 | 0.00 | 0.00 | 0.00 | 92 | 1011.3 | |
| 20260905062534 | 76 | 0.0 | 0.0 | 0.00 | 0.00 | 0.00 | 92 | 1011.4 | |
| 20260905061518 | 76 | 0.0 | 0.0 | 0.00 | 0.00 | 0.00 | 92 | 1011.5 | |
| 20260905060541 | 76 | 0.0 | 0.0 | 0.00 | 0.00 | 0.00 | 91 | 1011.6 | |
| 20260905055524 | 76 | 0.0 | 0.0 | 0.00 | 0.00 | 0.00 | 92 | 1011.7 | |
| 20260905054527 | 77 | 0.0 | 0.0 | 0.00 | 0.00 | 0.00 | 90 | 1011.7 | |
| 20260905053531 | 77 | 0.0 | 0.0 | 0.00 | 0.00 | 0.00 | 91 | 1011.7 | |
| 20260905052516 | 77 | 0.0 | 0.0 | 0.00 | 0.00 | 0.00 | 90 | 1011.9 | |
| 20260905051519 | 77 | 0.0 | 0.0 | 0.00 | 0.00 | 0.00 | 90 | 1011.9 | |
| 20260905050519 | 78 | 0.0 | 0.0 | 0.00 | 0.00 | 0.00 | 89 | 1011.9 | |
| 20260905045521 | 78 | 0.0 | 0.0 | 0.00 | 0.00 | 0.00 | 88 | 1011.7 | |
| 20260905044524 | 78 | 0.0 | 0.0 | 0.00 | 0.00 | 0.00 | 87 | 1011.9 | |
| 20260905043527 | 78 | 0.0 | 0.0 | 0.00 | 0.00 | 0.00 | 88 | 1011.7 | |
| 20260905042530 | 79 | 0.0 | 0.0 | 0.00 | 0.00 | 0.00 | 87 | 1011.8 | |
| 20260905041516 | 79 | 0.0 | 0.0 | 0.00 | 0.00 | 0.00 | 86 | 1011.7 | |
| 20260905040520 | 79 | 0.0 | 0.0 | 0.00 | 0.00 | 0.00 | 85 | 1011.6 | |
| 20260905035544 | 79 | 0.0 | 0.0 | 0.00 | 0.00 | 0.00 | 85 | 1011.8 | |
| 20260905034546 | 79 | 0.0 | 0.0 | 0.00 | 0.00 | 0.00 | 86 | 1012.0 | |
| 20260905033529 | 79 | 0.0 | 0.0 | 0.00 | 0.00 | 0.00 | 85 | 1012.1 | |
| 20260905032526 | 79 | 0.0 | 0.0 | 0.00 | 0.00 | 0.00 | 86 | 1012.0 | |
| 20260905031517 | 79 | 0.0 | 0.0 | 0.00 | 0.00 | 0.00 | 86 | 1012.1 | |
| 20260905030541 | 80 | 0.0 | 0.0 | 0.00 | 0.00 | 0.00 | 84 | 1012.1 | |
| 20260905025518 | 80 | 0.0 | 0.0 | 0.00 | 0.00 | 0.00 | 84 | 1011.7 | |
| 20260905024527 | 80 | 0.0 | 0.0 | 0.00 | 0.00 | 0.00 | 82 | 1011.8 | |
| 20260905023551 | 80 | 0.0 | 0.0 | 0.00 | 0.00 | 0.00 | 82 | 1011.7 | |
| 20260905022517 | 80 | 0.0 | 0.0 | 0.00 | 0.00 | 0.00 | 84 | 1011.7 | |
| 20260905021519 | 81 | 0.0 | 0.0 | 0.00 | 0.00 | 0.00 | 82 | 1011.7 | |
| 20260905020523 | 81 | 0.0 | 0.0 | 0.00 | 0.00 | 0.00 | 80 | 1011.7 | |
| 20260905015527 | 82 | 0.0 | 0.0 | 0.00 | 0.00 | 0.00 | 77 | 1011.7 | |
| 20260905014530 | 82 | 0.0 | 0.0 | 0.00 | 0.00 | 0.00 | 78 | 1011.6 | |
| 20260905013534 | 83 | 0.0 | 0.0 | 0.00 | 0.00 | 0.00 | 77 | 1011.5 | |
| 20260905012539 | 84 | 0.0 | 0.0 | 0.00 | 0.00 | 0.00 | 75 | 1011.3 | |
| 20260905011602 | 84 | 0.0 | 0.0 | 0.00 | 0.00 | 0.00 | 73 | 1011.3 | |
| 20260905010525 | 85 | 0.0 | 0.0 | 0.00 | 0.00 | 0.00 | 70 | 1011.2 | |
| 20260905005528 | 86 | 0.0 | 0.0 | 0.00 | 0.00 | 0.00 | 67 | 1010.8 | |
| 20260905004531 | 87 | 0.0 | 0.0 | 0.00 | 0.00 | 0.00 | 66 | 1010.7 | |
| 20260905003516 | 88 | 0.0 | 0.0 | 0.00 | 0.00 | 0.00 | 65 | 1010.7 | |
| 20260905002520 | 89 | 0.0 | 0.0 | 0.00 | 0.00 | 0.00 | 64 | 1010.6 | |
| 20260905001605 | 90 | 0.0 | 0.0 | 0.00 | 0.00 | 0.00 | 61 | 1010.8 | |
| 20260905000546 | 92 | 0.0 | 0.0 | 0.00 | 0.00 | 0.00 | 57 | 1010.9 | |
| 20260904235529 | 94 | 0.0 | 0.0 | 0.00 | 0.00 | 0.00 | 56 | 1011.0 |